Date String (YYYY-MM-DD hh:mm:ss) UTC,Instrument flags,Ambient pressure (hPa),Sample flow (lpm),Bypass flow (lpm),Sample temperature (°C),Ambient temperature (°C),ASC tube jacket temperature (°C),LED temperature (°C),Box temperature (°C),Sample RH (%),Span deviation,Mass concentration (μg/m³),Mass concentration (μg/m³),Mass concentration (μg/m³)
DateTimeUTC,F1_M11,P_M11,Q1_M11,Q2_M11,T1_M11,T2_M11,T3_M11,T4_M11,T5_M11,U1_M11,ZSPAN_M11,X2_M11,X0_M11,X1_M11
2021-10-23 22:00:00,,0816.2,4.99,0.00,30.2,29.5,00.0,39.1,32.0,06.4,0000.0,0002.65,0009.36,0001.51
2021-10-23 22:01:00,,0816.2,5.00,0.00,30.2,29.5,00.0,39.1,32.0,06.4,0000.0,0002.68,0009.20,0001.54
2021-10-23 22:02:00,,0816.1,4.99,0.00,30.2,29.5,00.0,39.1,32.0,06.4,0000.0,0002.74,0009.10,0001.56
2021-10-23 22:03:00,,0816.1,5.00,0.00,30.2,29.5,00.0,39.2,32.0,06.4,0000.0,0002.76,0008.91,0001.55
2021-10-23 22:04:00,,0816.1,5.01,0.00,30.2,29.6,00.0,39.2,32.0,06.4,0000.0,0002.81,0008.85,0001.55
2021-10-23 22:05:00,,0816.1,5.00,0.00,30.2,29.6,00.0,39.2,32.0,06.5,0000.0,0002.90,0009.84,0001.57
2021-10-23 22:06:00,,0816.1,4.99,0.00,30.2,29.6,00.0,39.2,32.0,06.5,0000.0,0002.97,0010.05,0001.56
2021-10-23 22:07:00,,0816.2,5.01,0.00,30.3,29.5,00.0,39.2,32.0,06.5,0000.0,0002.92,0009.75,0001.57
2021-10-23 22:08:00,,0816.3,5.00,0.00,30.2,27.6,00.0,39.2,31.7,06.5,0000.0,0002.97,0009.75,0001.58
2021-10-23 22:09:00,,0816.3,5.00,0.00,30.0,25.8,00.0,39.2,31.2,06.6,0000.0,0002.98,0011.52,0001.59
2021-10-23 22:10:00,,0816.2,5.02,0.00,29.9,25.9,00.0,39.1,31.2,06.6,0000.0,0003.00,0012.74,0001.59
2021-10-23 22:11:00,,0816.2,5.01,0.00,29.8,26.3,00.0,39.1,31.2,06.7,0000.0,0003.01,0012.80,0001.60
2021-10-23 22:12:00,,0816.3,4.99,0.00,29.8,26.8,00.0,39.0,31.3,06.7,0000.0,0002.95,0012.52,0001.59
2021-10-23 22:13:00,,0816.3,4.99,0.00,29.8,27.3,00.0,39.0,31.3,06.7,0000.0,0002.87,0012.44,0001.57
2021-10-23 22:14:00,,0816.4,4.99,0.00,29.8,27.6,00.0,38.9,31.4,06.7,0000.0,0002.88,0012.80,0001.58
2021-10-23 22:15:00,,0816.4,5.01,0.00,29.8,27.9,00.0,38.9,31.4,06.7,0000.0,0002.87,0012.53,0001.59
2021-10-23 22:16:00,,0816.5,4.99,0.00,29.8,28.2,00.0,38.9,31.5,06.6,0000.0,0002.90,0012.61,0001.59
2021-10-23 22:17:00,,0816.4,5.00,0.00,29.8,28.4,00.0,38.9,31.5,06.6,0000.0,0002.93,0012.44,0001.59
2021-10-23 22:18:00,,0816.5,5.01,0.00,29.8,28.5,00.0,38.9,31.6,06.6,0000.0,0002.93,0012.32,0001.59
2021-10-23 22:19:00,,0816.5,4.99,0.00,29.9,28.7,00.0,38.9,31.6,06.7,0000.0,0002.88,0012.99,0001.61
2021-10-23 22:20:00,,0816.4,4.99,0.00,29.9,28.8,00.0,38.9,31.7,06.8,0000.0,0002.93,0011.60,0001.63
2021-10-23 22:21:00,,0816.4,4.99,0.00,29.9,28.9,00.0,38.9,31.7,06.9,0000.0,0002.94,0010.43,0001.65
2021-10-23 22:22:00,,0816.4,5.01,0.00,29.9,29.0,00.0,38.9,31.7,06.9,0000.0,0002.97,0010.40,0001.67
2021-10-23 22:23:00,,0816.3,5.01,0.00,30.0,29.0,00.0,38.9,31.7,06.9,0000.0,0003.04,0010.53,0001.68
2021-10-23 22:24:00,,0816.2,4.99,0.00,30.0,29.1,00.0,39.0,31.8,06.9,0000.0,0003.16,0011.11,0001.69
2021-10-23 22:25:00,,0816.3,4.99,0.00,30.0,29.1,00.0,39.0,31.8,06.9,0000.0,0003.20,0011.85,0001.71
2021-10-23 22:26:00,,0816.4,5.00,0.00,30.0,29.2,00.0,39.0,31.9,06.8,0000.0,0003.23,0012.79,0001.72
2021-10-23 22:27:00,,0816.4,5.00,0.00,30.1,29.2,00.0,39.0,31.9,07.2,0000.0,0003.28,0012.70,0001.74
2021-10-23 22:28:00,,0816.4,5.00,0.00,30.1,29.3,00.0,39.0,31.9,07.5,0000.0,0003.30,0013.09,0001.79
2021-10-23 22:29:00,,0816.4,5.00,0.00,30.1,29.3,00.0,39.1,31.9,07.8,0000.0,0003.37,0013.15,0001.86
2021-10-23 22:30:00,,0816.5,5.00,0.00,30.1,29.4,00.0,39.1,31.9,08.1,0000.0,0003.48,0013.71,0001.94
2021-10-23 22:31:00,,0816.4,4.98,0.00,30.2,29.4,00.0,39.1,31.9,08.2,0000.0,0003.58,0014.07,0002.01
2021-10-23 22:32:00,,0816.4,5.00,0.00,30.2,29.4,00.0,39.1,32.0,08.3,0000.0,0003.71,0015.07,0002.11
2021-10-23 22:33:00,,0816.4,5.01,0.00,30.2,29.4,00.0,39.1,32.0,08.3,0000.0,0003.85,0015.71,0002.25
2021-10-23 22:34:00,,0816.4,5.01,0.00,30.2,29.4,00.0,39.2,32.0,08.3,0000.0,0004.03,0017.01,0002.40
2021-10-23 22:35:00,,0816.4,4.99,0.00,30.2,29.4,00.0,39.2,32.0,08.3,0000.0,0004.18,0017.77,0002.56
2021-10-23 22:36:00,,0816.4,5.01,0.00,30.2,29.5,00.0,39.2,32.0,08.4,0000.0,0004.39,0018.51,0002.72
2021-10-23 22:37:00,,0816.5,5.00,0.00,30.2,29.5,00.0,39.2,32.0,08.4,0000.0,0004.61,0018.98,0002.89
2021-10-23 22:38:00,,0816.5,5.00,0.00,30.2,29.5,00.0,39.2,32.0,08.4,0000.0,0004.70,0019.22,0003.06
2021-10-23 22:39:00,,0816.5,5.00,0.00,30.3,29.6,00.0,39.2,32.0,08.5,0000.0,0004.84,0019.99,0003.16
2021-10-23 22:40:00,,0816.5,5.00,0.00,30.3,29.6,00.0,39.2,32.1,08.5,0000.0,0005.00,0021.94,0003.23
2021-10-23 22:41:00,,0816.4,4.99,0.00,30.3,29.5,00.0,39.3,32.1,08.6,0000.0,0005.13,0021.82,0003.29
2021-10-23 22:42:00,,0816.4,5.00,0.00,30.3,27.8,00.0,39.3,31.8,08.5,0000.0,0005.23,0021.68,0003.34
2021-10-23 22:43:00,,0816.4,5.00,0.00,30.1,26.6,00.0,39.2,31.5,08.6,0000.0,0005.34,0021.66,0003.39
2021-10-23 22:44:00,,0816.4,5.01,0.00,30.1,26.8,00.0,39.2,31.5,09.3,0000.0,0005.48,0023.34,0003.46
2021-10-23 22:45:00,,0816.5,5.00,0.00,30.0,27.2,00.0,39.2,31.5,10.2,0000.0,0005.76,0025.38,0003.65
2021-10-23 22:46:00,,0816.5,5.00,0.00,30.0,27.6,00.0,39.1,31.5,10.7,0000.0,0006.08,0025.73,0003.92
2021-10-23 22:47:00,,0816.4,4.99,0.00,29.9,27.9,00.0,39.1,31.6,10.9,0000.0,0006.55,0028.26,0004.25
2021-10-23 22:48:00,,0816.4,5.01,0.00,29.9,28.2,00.0,39.1,31.6,10.9,0000.0,0006.94,0029.52,0004.57
2021-10-23 22:49:00,,0816.5,4.99,0.00,30.0,28.4,00.0,39.1,31.7,10.9,0000.6,0007.41,0031.25,0004.89
2021-10-23 22:50:00,,0816.4,5.00,0.00,30.0,28.5,00.0,39.1,31.7,11.0,0003.2,0007.88,0033.67,0005.25
2021-10-23 22:51:00,,0816.5,4.99,0.00,30.0,28.7,00.0,39.1,31.7,11.1,0003.3,0008.39,0033.84,0005.59
2021-10-23 22:52:00,,0816.4,5.01,0.00,30.0,28.8,00.0,39.1,31.7,11.2,0003.1,0008.95,0035.42,0005.94
2021-10-23 22:53:00,,0816.4,5.00,0.00,30.0,28.9,00.0,39.1,31.8,11.3,0003.2,0009.40,0037.71,0006.29
2021-10-23 22:54:00,,0816.4,5.00,0.00,30.0,29.0,00.0,39.1,31.8,11.5,0003.1,0009.83,0041.25,0006.64
2021-10-23 22:55:00,,0816.3,4.99,0.00,30.0,29.0,00.0,39.1,31.8,11.6,0002.5,0010.24,0041.21,0006.95
2021-10-23 22:56:00,,0816.3,5.01,0.00,30.0,29.1,00.0,39.1,31.8,11.7,0001.6,0010.59,0040.79,0007.13
2021-10-23 22:57:00,,0816.4,5.00,0.00,30.1,29.1,00.0,39.1,31.9,11.8,0001.6,0010.84,0043.14,0007.24
2021-10-23 22:58:00,,0816.3,4.99,0.00,30.1,29.2,00.0,39.1,31.9,11.9,0001.8,0010.98,0043.41,0007.29
2021-10-23 22:59:00,,0816.3,5.01,0.00,30.1,29.2,00.0,39.1,31.9,11.9,0002.5,0011.12,0042.71,0007.34
